sat.trackr.live / text

‹ back to catalog

UNKNOWN

NORAD 81439

UNKNOWN UNKNOWN UNKNOWN

§ Identity

Operator
Country
Launch date
Launch site
Launch vehicle
Mass (kg)
RCS (m²)

External: N2YO · Heavens-Above

§ Orbital elements

Epoch: 2026-05-23T20:51:15.979680Z

Period
114.04 min
Inclination
67.1595°
Eccentricity
0.0592382
Mean motion
12.62688524 rev/d
Perigee alt
950.4 km
Apogee alt
1,873.3 km
Semi-major
7,790.0 km
B*
1.0777e-4
RAAN
188.3163°
Arg perigee
103.1310°
Mean anomaly
263.6471°
Rev number
28,236

§ Raw data

UNKNOWN1 81439U          26143.86893495 -.00000013  00000+0  10777-3 0  99922 81439  67.1595 188.3163 0592382 103.1310 263.6471 12.62688524282362

JSON: /api/v1/satellites/81439 · /tle

For live sub-satellite position, see the globe view (requires WebGL).

§ Visibility from observer

Set your observer location to see the next 7 days of passes ≥ 10°. The values pass through the URL so the page stays shareable.

No JS? Fill the form by hand. The geolocation button needs JavaScript.